| time (UTC) | temp C | wind direction | speed KPH | gust KPH | rain 1hr cm | rain 24hr cm | rain mn cm | humidity % | barometer mb |
| 20260507105011 | 12 | 0 | 0.0 | 0.0 | 0.00 | 0.13 | 0.00 | 84 | 1016.3 |
| 20260507104010 | 12 | 0 | 0.0 | 0.0 | 0.00 | 0.13 | 0.00 | 77 | 1016.3 |
| 20260507103010 | 12 | 0 | 0.0 | 0.0 | 0.00 | 0.15 | 0.00 | 74 | 1016.3 |
| 20260507101010 | 13 | 0 | 0.0 | 0.0 | 0.00 | 0.15 | 0.00 | 77 | 1016.2 |
| 20260507100010 | 13 | 0 | 0.0 | 0.0 | 0.00 | 0.15 | 0.00 | 81 | 1016.1 |
| 20260507095010 | 12 | 0 | 0.0 | 0.0 | 0.00 | 0.15 | 0.00 | 79 | 1016.1 |
| 20260507094010 | 12 | 0 | 0.0 | 0.0 | 0.00 | 0.15 | 0.00 | 80 | 1016.1 |
| 20260507093011 | 12 | 0 | 0.0 | 0.0 | 0.00 | 0.15 | 0.00 | 83 | 1016.0 |
| 20260507092011 | 12 | 0 | 0.0 | 0.0 | 0.00 | 0.15 | 0.00 | 84 | 1016.0 |
| 20260507091011 | 11 | 0 | 0.0 | 0.0 | 0.00 | 0.18 | 0.00 | 86 | 1016.0 |
| 20260507090010 | 11 | 0 | 0.0 | 0.0 | 0.00 | 0.20 | 0.00 | 84 | 1016.0 |
| 20260507083011 | 10 | 0 | 0.0 | 0.0 | 0.00 | 0.28 | 0.00 | 90 | 1015.9 |
| 20260507082011 | 10 | 0 | 0.0 | 0.0 | 0.00 | 0.30 | 0.00 | 89 | 1015.8 |
| 20260507080010 | 10 | 0 | 0.0 | 0.0 | 0.00 | 0.33 | 0.00 | 93 | 1015.7 |
| 20260507075010 | 10 | 0 | 0.0 | 0.0 | 0.00 | 0.36 | 0.00 | 93 | 1015.6 |
| 20260507074010 | 10 | 0 | 0.0 | 0.0 | 0.00 | 0.38 | 0.00 | 94 | 1015.6 |
| 20260507073011 | 9 | 0 | 0.0 | 0.0 | 0.00 | 0.38 | 0.00 | 97 | 1015.5 |
| 20260507070013 | 8 | 0 | 0.0 | 0.0 | 0.00 | 0.41 | 0.00 | 10 | 1015.3 |
| 20260507065011 | 8 | 0 | 0.0 | 0.0 | 0.00 | 0.43 | 0.00 | 10 | 1015.3 |
| 20260507064011 | 8 | 0 | 0.0 | 0.0 | 0.00 | 0.43 | 0.00 | 10 | 1015.3 |
| 20260507060011 | 8 | 0 | 0.0 | 0.0 | 0.00 | 0.51 | 0.00 | 10 | 1015.0 |
| 20260507055011 | 8 | 0 | 0.0 | 0.0 | 0.00 | 0.53 | 0.00 | 10 | 1014.9 |
| 20260507054011 | 7 | 0 | 0.0 | 0.0 | 0.00 | 0.56 | 0.00 | 10 | 1014.8 |
| 20260507053011 | 7 | 0 | 0.0 | 0.0 | 0.00 | 0.58 | 0.00 | 10 | 1014.7 |
| 20260507052010 | 7 | 0 | 0.0 | 0.0 | 0.00 | 0.61 | 0.00 | 10 | 1014.6 |
| 20260507051010 | 7 | 0 | 0.0 | 0.0 | 0.00 | 0.64 | 0.00 | 10 | 1014.5 |
| 20260507045011 | 7 | 0 | 0.0 | 0.0 | 0.00 | 0.66 | 0.00 | 10 | 1014.2 |
| 20260507044011 | 7 | 0 | 0.0 | 0.0 | 0.00 | 0.69 | 0.00 | 10 | 1014.1 |
| 20260507043010 | 7 | 0 | 0.0 | 0.0 | 0.00 | 0.69 | 0.00 | 10 | 1013.9 |
| 20260507042011 | 7 | 0 | 0.0 | 0.0 | 0.00 | 0.71 | 0.00 | 10 | 1013.9 |
| 20260507041011 | 7 | 0 | 0.0 | 0.0 | 0.00 | 0.71 | 0.00 | 10 | 1013.8 |
| 20260507040010 | 7 | 0 | 0.0 | 0.0 | 0.00 | 0.74 | 0.00 | 10 | 1013.7 |
| 20260507035010 | 7 | 0 | 0.0 | 0.0 | 0.00 | 0.76 | 0.00 | 10 | 1013.7 |
| 20260507034011 | 7 | 0 | 0.0 | 0.0 | 0.00 | 0.76 | 0.00 | 10 | 1013.7 |
| 20260507033011 | 7 | 0 | 0.0 | 0.0 | 0.00 | 0.79 | 0.00 | 10 | 1013.7 |
| 20260507032011 | 7 | 0 | 0.0 | 0.0 | 0.00 | 0.79 | 0.00 | 10 | 1013.6 |
| 20260507031011 | 7 | 0 | 0.0 | 0.0 | 0.00 | 0.79 | 0.00 | 10 | 1013.6 |
| 20260507030011 | 7 | 0 | 0.0 | 0.0 | 0.00 | 0.79 | 0.00 | 10 | 1013.5 |
| 20260507025011 | 7 | 0 | 0.0 | 0.0 | 0.00 | 0.81 | 0.00 | 10 | 1013.5 |
| 20260507024011 | 7 | 0 | 0.0 | 0.0 | 0.00 | 0.84 | 0.00 | 10 | 1013.5 |
| 20260507023010 | 7 | 0 | 0.0 | 0.0 | 0.00 | 0.86 | 0.00 | 10 | 1013.3 |
| 20260507022011 | 7 | 0 | 0.0 | 0.0 | 0.00 | 0.89 | 0.00 | 10 | 1013.3 |
| 20260507021011 | 7 | 0 | 0.0 | 0.0 | 0.00 | 0.89 | 0.00 | 10 | 1013.3 |
| 20260507020011 | 7 | 0 | 0.0 | 0.0 | 0.00 | 0.91 | 0.00 | 10 | 1013.3 |
| 20260507015010 | 7 | 0 | 0.0 | 0.0 | 0.00 | 0.94 | 0.00 | 10 | 1013.2 |
| 20260507014011 | 7 | 0 | 0.0 | 0.0 | 0.00 | 0.97 | 0.00 | 10 | 1013.2 |
| 20260507013011 | 7 | 0 | 0.0 | 0.0 | 0.00 | 0.99 | 0.00 | 10 | 1013.3 |
| 20260507011011 | 7 | 0 | 0.0 | 0.0 | 0.00 | 1.02 | 0.00 | 10 | 1013.2 |
| 20260507005011 | 7 | 0 | 0.0 | 0.0 | 0.00 | 1.09 | 0.00 | 10 | 1013.1 |
| 20260507004012 | 7 | 0 | 0.0 | 0.0 | 0.00 | 1.09 | 0.00 | 10 | 1013.1 |
| 20260507003011 | 7 | 0 | 0.0 | 0.0 | 0.00 | 1.12 | 0.00 | 10 | 1013.1 |
| 20260507001011 | 7 | 0 | 0.0 | 0.0 | 0.00 | 1.17 | 0.00 | 10 | 1013.0 |
| 20260507000013 | 7 | 0 | 0.0 | 0.0 | 0.00 | 1.19 | 0.00 | 10 | 1012.9 |
| 20260506233013 | 7 | 0 | 0.0 | 0.0 | 0.00 | 1.27 | 0.00 | 10 | 1012.8 |
| 20260506232012 | 8 | 0 | 0.0 | 0.0 | 0.00 | 1.30 | 0.00 | 10 | 1012.8 |
| 20260506231013 | 8 | 0 | 0.0 | 0.0 | 0.00 | 1.32 | 0.00 | 10 | 1012.7 |
| 20260506230013 | 8 | 0 | 0.0 | 0.0 | 0.00 | 1.35 | 0.00 | 10 | 1012.6 |
| 20260506225013 | 8 | 0 | 0.0 | 0.0 | 0.00 | 1.35 | 0.00 | 10 | 1012.6 |
| 20260506224014 | 8 | 0 | 0.0 | 0.0 | 0.00 | 1.37 | 0.00 | 10 | 1012.5 |
| 20260506223013 | 8 | 0 | 0.0 | 0.0 | 0.00 | 1.37 | 0.00 | 10 | 1012.3 |
| 20260506222013 | 8 | 0 | 0.0 | 0.0 | 0.00 | 1.37 | 0.00 | 10 | 1012.2 |
| 20260506221014 | 8 | 0 | 0.0 | 0.0 | 0.00 | 1.37 | 0.00 | 10 | 1012.1 |
| 20260506215014 | 8 | 0 | 0.0 | 0.0 | 0.00 | 1.40 | 1.40 | 10 | 1011.9 |
| 20260506214014 | 8 | 0 | 0.0 | 0.0 | 0.00 | 1.42 | 1.40 | 10 | 1011.8 |
| 20260506213013 | 8 | 0 | 0.0 | 0.0 | 0.00 | 1.45 | 1.40 | 10 | 1011.8 |
| 20260506212014 | 8 | 0 | 0.0 | 0.0 | 0.00 | 1.45 | 1.40 | 10 | 1011.7 |
| 20260506211012 | 8 | 0 | 0.0 | 0.0 | 0.00 | 1.47 | 1.40 | 10 | 1011.7 |
| 20260506210013 | 8 | 0 | 0.0 | 0.0 | 0.00 | 1.50 | 1.40 | 10 | 1011.7 |
| 20260506205014 | 8 | 0 | 0.0 | 0.0 | 0.00 | 1.52 | 1.40 | 10 | 1011.7 |
| 20260506204013 | 8 | 0 | 0.0 | 0.0 | 0.00 | 1.55 | 1.40 | 10 | 1011.7 |
| 20260506203013 | 8 | 0 | 0.0 | 0.0 | 0.00 | 1.55 | 1.40 | 10 | 1011.6 |
| 20260506202013 | 8 | 0 | 0.0 | 0.0 | 0.00 | 1.57 | 1.40 | 10 | 1011.6 |
| 20260506201012 | 8 | 0 | 0.0 | 0.0 | 0.00 | 1.57 | 1.40 | 10 | 1011.5 |
| 20260506200014 | 8 | 0 | 0.0 | 0.0 | 0.00 | 1.60 | 1.40 | 10 | 1011.4 |
| 20260506195013 | 8 | 0 | 0.0 | 0.0 | 0.00 | 1.63 | 1.40 | 10 | 1011.4 |
| 20260506194014 | 8 | 0 | 0.0 | 0.0 | 0.00 | 1.65 | 1.40 | 10 | 1011.3 |
| 20260506193013 | 8 | 0 | 0.0 | 0.0 | 0.00 | 1.65 | 1.40 | 10 | 1011.2 |
| 20260506192012 | 8 | 0 | 0.0 | 0.0 | 0.00 | 1.68 | 1.40 | 10 | 1011.2 |
| 20260506190012 | 8 | 0 | 0.0 | 0.0 | 0.00 | 1.70 | 1.40 | 10 | 1011.0 |
| 20260506185013 | 8 | 0 | 0.0 | 0.0 | 0.00 | 1.73 | 1.40 | 10 | 1010.9 |
| 20260506184012 | 8 | 0 | 0.0 | 0.0 | 0.00 | 1.73 | 1.40 | 10 | 1010.8 |
| 20260506183012 | 8 | 0 | 0.0 | 0.0 | 0.00 | 1.75 | 1.40 | 10 | 1010.7 |
| 20260506182012 | 8 | 0 | 0.0 | 0.0 | 0.00 | 1.78 | 1.40 | 10 | 1010.5 |
| 20260506181011 | 8 | 0 | 0.0 | 0.0 | 0.00 | 1.83 | 1.40 | 10 | 1010.5 |
| 20260506180012 | 8 | 0 | 0.0 | 0.0 | 0.00 | 1.83 | 1.40 | 10 | 1010.3 |
| 20260506175012 | 8 | 0 | 0.0 | 0.0 | 0.00 | 1.85 | 1.40 | 10 | 1010.3 |
| 20260506174013 | 8 | 0 | 0.0 | 0.0 | 0.00 | 1.85 | 1.40 | 10 | 1010.1 |
| 20260506173012 | 8 | 0 | 0.0 | 0.0 | 0.00 | 1.85 | 1.40 | 99 | 1010.1 |
| 20260506172012 | 8 | 0 | 0.0 | 0.0 | 0.00 | 1.85 | 1.40 | 98 | 1010.0 |
| 20260506165011 | 9 | 0 | 0.0 | 0.0 | 0.00 | 1.85 | 1.40 | 98 | 1009.9 |
| 20260506164012 | 9 | 0 | 0.0 | 0.0 | 0.00 | 1.85 | 1.40 | 98 | 1009.8 |
| 20260506163012 | 9 | 0 | 0.0 | 0.0 | 0.00 | 1.85 | 1.40 | 97 | 1009.8 |
| 20260506162012 | 9 | 0 | 0.0 | 0.0 | 0.00 | 1.85 | 1.40 | 97 | 1009.8 |
| 20260506161012 | 9 | 0 | 0.0 | 0.0 | 0.00 | 1.85 | 1.40 | 97 | 1009.8 |
| 20260506160011 | 9 | 0 | 0.0 | 0.0 | 0.00 | 1.85 | 1.40 | 96 | 1009.7 |
| 20260506155011 | 10 | 0 | 0.0 | 0.0 | 0.00 | 1.85 | 1.40 | 96 | 1009.6 |
| 20260506154013 | 10 | 0 | 0.0 | 0.0 | 0.00 | 1.85 | 1.40 | 96 | 1009.6 |
| 20260506153011 | 10 | 0 | 0.0 | 0.0 | 0.00 | 1.85 | 1.40 | 95 | 1009.5 |
| 20260506151012 | 10 | 0 | 0.0 | 0.0 | 0.00 | 1.85 | 1.40 | 95 | 1009.4 |
| 20260506150012 | 10 | 0 | 0.0 | 0.0 | 0.00 | 1.85 | 1.40 | 96 | 1009.4 |
| 20260506145013 | 10 | 0 | 0.0 | 0.0 | 0.00 | 1.85 | 1.40 | 95 | 1009.3 |
| 20260506144012 | 10 | 0 | 0.0 | 0.0 | 0.00 | 1.85 | 1.40 | 97 | 1009.3 |
| 20260506143011 | 10 | 0 | 0.0 | 0.0 | 0.00 | 1.85 | 1.40 | 97 | 1009.3 |
| 20260506142011 | 10 | 0 | 0.0 | 0.0 | 0.00 | 1.85 | 1.40 | 10 | 1009.3 |
| 20260506140012 | 8 | 0 | 0.0 | 0.0 | 0.00 | 1.85 | 1.40 | 10 | 1009.5 |
| 20260506135011 | 9 | 0 | 0.0 | 0.0 | 0.00 | 1.85 | 1.40 | 10 | 1009.4 |
| 20260506134011 | 9 | 0 | 0.0 | 0.0 | 0.03 | 1.85 | 1.40 | 10 | 1009.4 |
| 20260506133011 | 9 | 0 | 0.0 | 0.0 | 0.03 | 1.85 | 1.40 | 99 | 1009.4 |
| 20260506132011 | 10 | 0 | 0.0 | 0.0 | 0.03 | 1.88 | 1.40 | 99 | 1009.2 |
| 20260506131011 | 10 | 0 | 0.0 | 0.0 | 0.05 | 1.88 | 1.40 | 10 | 1009.1 |
| 20260506125011 | 10 | 0 | 0.0 | 0.0 | 0.05 | 1.88 | 1.40 | 10 | 1009.0 |
| 20260506124011 | 10 | 0 | 0.0 | 0.0 | 0.05 | 1.88 | 1.40 | 10 | 1008.9 |
| 20260506123011 | 10 | 0 | 0.0 | 0.0 | 0.05 | 1.85 | 1.37 | 10 | 1008.8 |
| 20260506122012 | 10 | 0 | 0.0 | 0.0 | 0.05 | 1.85 | 1.37 | 10 | 1008.7 |
| 20260506120011 | 10 | 0 | 0.0 | 0.0 | 0.05 | 1.85 | 1.37 | 10 | 1008.6 |
| 20260506115011 | 10 | 0 | 0.0 | 0.0 | 0.08 | 1.85 | 1.37 | 10 | 1008.5 |
| 20260506114011 | 10 | 0 | 0.0 | 0.0 | 0.08 | 1.85 | 1.37 | 10 | 1008.4 |
| 20260506113012 | 10 | 0 | 0.0 | 0.0 | 0.08 | 1.83 | 1.35 | 10 | 1008.4 |
| 20260506112012 | 10 | 0 | 0.0 | 0.0 | 0.05 | 1.83 | 1.32 | 10 | 1008.4 |
| 20260506111012 | 10 | 0 | 0.0 | 0.0 | 0.05 | 1.83 | 1.32 | 10 | 1008.4 |
| 20260506110012 | 10 | 0 | 0.0 | 0.0 | 0.05 | 1.80 | 1.30 | 10 | 1008.4 |